Torna al catalogo

STARLINK-36604

AttivoComunicazioniSSO
NORAD 68142·PAYLOAD·🇺🇸 United States

Lanciato Mar 13, 2026 da Vandenberg Space Force Base

Loading…

Prossimi Passaggi (prossime 24 ore)

TLE

AggiornatoSource: CelesTrak SupGP

Epoca: Sep 14, 2026, 22:43 UTC

1 68142C 26049A   26257.94701389  .00038336  00000+0  11900-2 0  2577
2 68142  97.2840 277.9382 0001649  93.8617  32.0417 15.33420120    14

Traccia STARLINK-36604 in tempo reale con AllMySat

Download on the App Store